Vertical_Velocity
-15 6 -8 12 32 10 49 22 -5 -20 22 1 -7 7 -10 -6 -2 -2 -1 0 -0 -0 -2 1 1 -3 -1 -3 -2 -2 -2 -1 -1 -3 -2 1 0 -1 -2 -3 1 -4 -2 0
36 -8 2 27 1 -8 -9 -6 11 0 -8 -14 9 -3 5 -8 -3 0 -1 -0 -1 1 1 -2 -3 1 -1 -3 -5 -4 -2 -2 -1 -2 -4 -2 -5 6 -15 -7 -0 -3 -1 -1
9 -19 -16 -7 -11 -3 -10 11 -18 23 -3 -12 5 -4 7 -3 -2 0 -1 2 0 -3 0 3 0 1 1 -0 -1 -0 -1 -3 -1 -1 3 1 0 -8 -3 1 -1 1 1 2
-13 -7 -9 -4 -10 1 25 14 -8 -12 -4 24 1 -8 16 5 -4 -7 -3 -1 -1 -4 -2 4 2 -0 0 2 1 -1 -1 -0 -2 -2 -3 -1 1 -7 -3 -1 -0 -0 -2 -0
-23 -8 26 -8 -7 -1 14 -16 6 6 -9 9 17 2 33 1 0 -3 -1 2 4 -2 1 0 -1 -0 3 1 2 -1 -0 -0 -1 -2 -3 -3 -2 -7 -5 -8 -7 -6 -6 -1
-14 30 4 -1 -3 4 -4 25 -13 -9 -1 11 -12 3 -43 58 4 -5 -6 -5 -4 10 0 -4 0 5 -4 3 3 1 -3 1 -1 0 -1 -2 0 -1 10 -13 2 21 18 -4
-6 -3 -22 -14 5 22 -7 1 3 13 14 -14 17 -4 -8 -142 52 3 8 -12 -2 -1 -3 0 -0 5 -4 1 -2 4 -7 -2 -1 -1 -2 -2 -2 -4 -9 -2 10 0 17 28
-6 24 4 0 -18 12 -21 1 5 -2 0 -10 27 -4 20 -141 26 -3 -7 8 -8 -3 2 -1 0 2 -2 0 -1 0 -8 -1 0 -2 -3 -3 -3 -4 -6 -1 7 63 23 52
15 -12 38 3 -4 0 -24 6 -30 18 2 16 -38 11 16 -31 2 -1 6 -0 -10 -1 -3 -1 -3 -1 3 -4 -3 -1 -2 -0 -1 -1 -1 -1 -1 -2 -4 -8 13 19 31 82
7 -10 5 0 7 -7 -2 18 14 -14 5 -2 -6 -12 15 -19 13 -14 41 -4 -2 -0 -5 2 1 1 0 -5 -3 -2 -4 -1 -1 1 -1 -0 -0 -4 -1 -5 -7 5 -20 181
0 -1 17 -8 4 -1 -5 -10 -4 16 -2 0 0 -13 22 6 -23 -4 -6 -15 5 -5 -6 1 3 -1 -3 -4 1 -0 -2 -2 -0 5 3 -3 -3 -1 -5 -3 -7 3 14 -29
-21 2 8 -21 -25 -19 -2 -3 -9 20 -23 1 11 -1 -34 29 14 -9 8 -15 14 -1 -6 0 -2 -2 -2 -1 -0 -5 -0 -10 -6 1 -8 -2 -1 -0 -4 -2 -1 -4 6 16
1 -24 -1 6 13 -13 6 -7 12 -14 13 -11 17 -25 11 11 19 -11 -7 14 2 1 -6 -4 -4 -3 2 4 -2 1 -10 -12 -4 -32 7 -5 -3 -1 1 -2 -1 -7 -6 -6
-15 3 8 2 -7 13 -5 -9 2 15 22 -21 -16 -7 30 -10 -12 26 3 -15 7 -3 -2 -3 -1 -2 -1 -4 -5 -5 -8 -4 13 -0 -1 1 4 1 2 -3 -0 -2 -2 -6
-9 3 4 -3 15 -16 22 -14 -10 6 -13 28 1 12 -0 6 23 25 26 -11 5 -6 -3 -3 -1 0 -7 -8 0 -4 -1 1 -5 0 -0 1 3 -1 0 -5 -0 3 -2 -2
-8 -13 -2 13 13 -12 -4 18 -6 -7 -5 -9 -12 -9 4 14 9 -10 -24 14 -7 -6 -2 0 -1 -4 -8 -7 4 -0 7 -4 -2 2 7 -1 -1 1 -1 -5 -2 3 -4 2
-4 1 18 -11 6 0 7 -20 5 21 8 -10 2 -32 -5 24 18 -7 4 -4 3 -6 -1 -5 -6 -1 1 0 2 -1 4 4 7 11 -1 -2 -2 -1 -0 -1 -2 6 -5 3
13 1 8 -9 21 11 -31 24 1 5 11 9 8 -1 32 -9 -9 8 2 2 3 0 -3 0 -2 -0 -5 -1 -3 -3 1 0 6 8 6 0 3 2 1 1 1 -2 -1 7
33 15 1 16 -14 -9 -13 -8 -35 -16 -28 -12 1 34 30 -16 -7 8 -7 1 -2 1 3 3 5 8 3 -1 -1 8 5 4 8 3 -2 -6 -3 -1 0 2 2 4 1 8
3 5 24 5 11 -1 -14 25 21 -13 -2 -21 -11 -3 -12 -7 20 26 4 0 -1 7 3 2 1 -4 -9 -3 -10 -8 -5 -1 -6 -10 -10 -6 -3 0 5 4 -1 2 9 7
1 -14 9 4 -7 2 -33 2 -7 6 19 -6 -5 -9 -5 -1 4 -84 7 7 5 -0 3 2 1 7 -6 -7 -6 -3 -5 -5 -5 -4 -4 -3 -9 -6 9 6 4 3 4 -1
-5 1 -9 5 15 13 3 11 26 4 -5 -6 -2 -3 -4 -1 5 0 5 -3 -0 5 2 10 8 7 -9 -5 -2 3 -3 2 -1 -3 -7 -12 -3 -3 -8 -2 7 4 9 -1
29 -24 -16 -9 -5 23 -14 7 -11 -7 -10 -7 -4 -7 -6 -3 4 1 -0 -3 0 7 2 5 7 8 3 1 3 3 5 1 7 4 4 7 6 2 1 -11 5 -3 -0 1
-27 2 26 13 23 -5 -2 7 -1 -1 -6 -2 -6 -5 -3 -4 0 4 2 4 7 1 -1 -2 2 6 4 7 12 8 12 19 10 3 8 8 5 1 1 0 -6 -12 1 1
1 -3 -24 24 -5 2 3 3 -2 -4 -3 -0 -2 -4 -5 1 1 4 5 4 -0 2 0 -2 -1 1 2 2 1 -9 -4 -1 3 6 3 7 2 4 2 -12 -0 -6 -13 -9
-83 36 -24 16 -3 -6 6 -12 -2 2 -1 -4 -1 -3 -3 -1 0 1 1 6 8 4 4 0 -2 -0 -2 2 -4 -8 3 3 2 -0 5 -5 9 -7 3 3 -10 1 3 1
Height
3181 3183 3180 3176 3176 3179 3178 3176 3178 3181 3184 3188 3189 3188 3189 3189 3191 3192 3193 3194 3195 3197 3199 3200 3201 3202 3205 3204 3205 3207 3208 3209 3210 3211 3212 3214 3216 3217 3218 3219 3220 3220 3220 3220
3180 3178 3177 3176 3176 3179 3179 3177 3175 3180 3183 3185 3183 3183 3184 3185 3186 3189 3191 3193 3193 3195 3197 3198 3199 3202 3202 3203 3204 3206 3207 3208 3209 3210 3212 3215 3216 3216 3216 3218 3219 3220 3220 3220
3173 3175 3175 3176 3179 3180 3178 3175 3180 3177 3179 3177 3176 3182 3184 3181 3181 3185 3188 3191 3192 3193 3195 3196 3198 3201 3201 3201 3203 3205 3206 3207 3208 3209 3211 3212 3213 3214 3217 3218 3218 3217 3218 3219
3172 3171 3174 3176 3178 3179 3173 3175 3176 3178 3176 3172 3179 3182 3177 3177 3175 3179 3183 3186 3189 3189 3191 3196 3198 3199 3201 3202 3202 3203 3205 3206 3208 3210 3211 3212 3213 3214 3216 3216 3217 3216 3218 3218
3167 3169 3171 3174 3175 3177 3175 3177 3177 3176 3173 3167 3163 3166 3167 3176 3172 3174 3177 3182 3186 3187 3190 3194 3197 3199 3201 3202 3202 3202 3204 3205 3207 3209 3211 3211 3212 3215 3214 3216 3214 3214 3215 3217
3164 3166 3169 3171 3173 3174 3175 3175 3177 3175 3172 3163 3155 3159 3165 3169 3173 3173 3174 3177 3181 3185 3188 3191 3195 3198 3199 3201 3203 3203 3202 3204 3206 3207 3209 3210 3211 3213 3215 3212 3211 3214 3214 3213
3161 3162 3165 3168 3169 3171 3174 3175 3170 3168 3162 3155 3150 3155 3164 3174 3172 3173 3171 3173 3177 3181 3185 3188 3191 3196 3197 3199 3200 3202 3199 3202 3204 3206 3207 3208 3210 3211 3210 3209 3217 3211 3218 3216
3153 3155 3159 3162 3165 3166 3168 3170 3164 3158 3149 3148 3148 3151 3157 3159 3169 3170 3169 3171 3173 3177 3182 3185 3189 3193 3195 3197 3198 3198 3197 3200 3202 3204 3206 3207 3208 3209 3208 3207 3215 3209 3215 3219
3147 3148 3151 3155 3160 3164 3164 3164 3164 3156 3153 3150 3157 3151 3154 3161 3165 3165 3166 3170 3171 3173 3178 3182 3186 3189 3193 3194 3194 3195 3195 3198 3201 3203 3205 3206 3207 3208 3208 3205 3206 3214 3218 3196
3147 3148 3148 3152 3157 3159 3159 3161 3162 3159 3152 3149 3147 3150 3153 3158 3161 3164 3165 3168 3170 3171 3174 3180 3184 3187 3191 3192 3191 3193 3195 3198 3201 3202 3204 3205 3207 3208 3208 3206 3204 3206 3213 3179
3146 3146 3146 3151 3150 3153 3157 3157 3157 3155 3155 3151 3147 3149 3149 3155 3161 3165 3166 3167 3168 3169 3171 3177 3182 3185 3188 3189 3191 3191 3194 3196 3199 3201 3203 3205 3206 3207 3208 3206 3205 3207 3215 3219
3144 3142 3141 3143 3145 3148 3151 3152 3155 3152 3152 3147 3147 3151 3153 3156 3158 3162 3164 3165 3166 3167 3169 3174 3179 3182 3185 3187 3190 3190 3193 3195 3197 3200 3202 3203 3205 3206 3207 3207 3206 3205 3209 3216
3140 3141 3139 3136 3141 3145 3145 3146 3148 3150 3150 3147 3146 3145 3146 3152 3154 3159 3161 3161 3164 3164 3167 3171 3176 3179 3183 3186 3187 3187 3191 3194 3197 3200 3200 3202 3204 3205 3206 3206 3207 3207 3207 3209
3137 3136 3133 3128 3131 3133 3138 3142 3143 3143 3142 3144 3143 3144 3146 3152 3152 3156 3156 3158 3160 3160 3164 3168 3173 3177 3180 3182 3181 3184 3188 3192 3195 3197 3198 3200 3204 3205 3206 3207 3208 3208 3209 3211
3136 3133 3131 3128 3128 3131 3131 3137 3141 3142 3141 3138 3139 3142 3145 3146 3150 3152 3153 3155 3157 3157 3162 3165 3171 3174 3176 3177 3178 3182 3186 3190 3190 3195 3197 3199 3202 3204 3205 3207 3208 3209 3210 3211
3132 3131 3129 3126 3128 3131 3130 3131 3135 3139 3141 3141 3141 3141 3143 3144 3147 3150 3150 3152 3154 3154 3159 3162 3167 3171 3171 3173 3176 3179 3183 3185 3187 3191 3195 3197 3200 3202 3204 3205 3207 3208 3209 3211
3126 3126 3125 3125 3126 3128 3129 3129 3130 3132 3136 3140 3140 3143 3143 3143 3144 3146 3147 3146 3149 3149 3154 3157 3161 3165 3168 3170 3174 3177 3181 3184 3186 3190 3192 3194 3197 3200 3203 3204 3205 3207 3208 3210
3118 3120 3121 3121 3122 3123 3123 3124 3127 3131 3133 3135 3137 3137 3139 3140 3143 3143 3143 3144 3145 3147 3148 3154 3158 3163 3164 3167 3170 3174 3178 3182 3185 3187 3190 3193 3195 3197 3200 3202 3203 3204 3205 3207
3113 3115 3116 3116 3119 3119 3121 3122 3127 3129 3132 3133 3133 3135 3134 3137 3139 3139 3136 3138 3140 3142 3145 3150 3155 3159 3162 3164 3166 3171 3175 3179 3182 3183 3186 3190 3193 3195 3197 3199 3199 3200 3201 3203
3111 3113 3115 3113 3112 3113 3115 3118 3121 3125 3129 3128 3129 3130 3132 3134 3136 3131 3132 3133 3135 3141 3142 3146 3151 3155 3158 3160 3162 3166 3171 3175 3178 3180 3182 3186 3190 3192 3194 3195 3195 3197 3199 3200
3108 3109 3108 3109 3113 3110 3107 3116 3122 3125 3127 3124 3127 3129 3131 3131 3132 3133 3132 3132 3134 3136 3139 3143 3147 3150 3152 3155 3158 3161 3165 3170 3174 3176 3178 3182 3186 3190 3191 3192 3193 3194 3196 3197
3102 3108 3107 3108 3108 3108 3111 3117 3121 3119 3119 3123 3125 3127 3127 3128 3128 3128 3129 3130 3132 3134 3137 3140 3143 3145 3148 3151 3154 3158 3161 3165 3168 3170 3173 3178 3181 3184 3187 3189 3191 3192 3194 3195
3095 3099 3104 3108 3109 3107 3112 3110 3113 3117 3118 3121 3123 3124 3124 3125 3126 3126 3127 3127 3129 3130 3133 3136 3139 3141 3143 3146 3150 3154 3157 3160 3162 3166 3169 3173 3176 3179 3180 3183 3187 3190 3193 3194
3089 3093 3097 3103 3102 3104 3105 3106 3109 3113 3116 3119 3121 3122 3122 3122 3123 3124 3125 3126 3127 3129 3131 3133 3135 3137 3139 3143 3147 3149 3153 3158 3161 3163 3166 3168 3170 3173 3176 3179 3183 3187 3190 3191
3085 3088 3095 3096 3097 3101 3103 3102 3105 3110 3114 3116 3118 3119 3120 3120 3120 3122 3124 3123 3126 3128 3129 3132 3134 3136 3138 3140 3141 3143 3147 3151 3154 3156 3160 3163 3165 3167 3170 3171 3176 3180 3183 3186
3078 3083 3090 3093 3093 3099 3099 3100 3105 3108 3110 3112 3115 3117 3118 3118 3119 3119 3121 3122 3124 3126 3127 3129 3131 3133 3134 3136 3136 3141 3144 3146 3147 3151 3154 3157 3159 3161 3165 3167 3172 3176 3181 3183